Time,TemperatureF,DewpointF,PressureIn,WindDirection,WindDirectionDegrees,WindSpeedMPH,WindSpeedGustMPH,Humidity,HourlyPrecipIn,Conditions,Clouds,dailyrainin,SoftwareType,DateUTC
2014-01-25 00:10:00,17.2,-2.0,29.96,SSE,155,14.0,20.0,42,0.00,,,0.00,weatherlink.com 1.10,2014-01-25 05:10:00,
2014-01-25 00:25:00,17.3,-2.0,29.95,SE,136,7.0,16.0,43,0.00,,,0.00,weatherlink.com 1.10,2014-01-25 05:25:00,
2014-01-25 00:40:00,16.4,-2.0,29.94,SSE,150,4.0,13.0,45,0.00,,,0.00,weatherlink.com 1.10,2014-01-25 05:40:00,
2014-01-25 00:55:00,16.6,-2.0,29.93,SSE,160,4.0,16.0,44,0.00,,,0.00,weatherlink.com 1.10,2014-01-25 05:55:00,
2014-01-25 01:10:00,17.1,-2.0,29.92,SSE,158,3.0,20.0,44,0.00,,,0.00,weatherlink.com 1.10,2014-01-25 06:10:00,
2014-01-25 01:26:00,16.5,-2.0,29.91,SSE,156,7.0,13.0,45,0.00,,,0.00,weatherlink.com 1.10,2014-01-25 06:26:00,
2014-01-25 01:41:00,16.5,-1.0,29.90,South,173,9.0,15.0,46,0.00,,,0.00,weatherlink.com 1.10,2014-01-25 06:41:00,
2014-01-25 01:56:00,16.4,-1.0,29.88,SE,141,11.0,16.0,47,0.00,,,0.00,weatherlink.com 1.10,2014-01-25 06:56:00,
2014-01-25 02:11:00,16.8,0.0,29.87,SSE,152,5.0,16.0,47,0.00,,,0.00,weatherlink.com 1.10,2014-01-25 07:11:00,
2014-01-25 02:26:00,17.1,0.0,29.87,SE,135,4.0,14.0,47,0.00,,,0.00,weatherlink.com 1.10,2014-01-25 07:26:00,
2014-01-25 02:41:00,17.9,0.0,29.86,South,170,18.0,19.0,45,0.00,,,0.00,weatherlink.com 1.10,2014-01-25 07:41:00,
2014-01-25 02:56:00,18.1,0.0,29.85,NW,312,6.0,20.0,45,0.00,,,0.00,weatherlink.com 1.10,2014-01-25 07:56:00,
2014-01-25 03:11:00,18.1,0.0,29.84,SE,134,10.0,23.0,46,0.00,,,0.00,weatherlink.com 1.10,2014-01-25 08:11:00,
2014-01-25 03:26:00,18.1,0.0,29.82,South,169,6.0,23.0,46,0.00,,,0.00,weatherlink.com 1.10,2014-01-25 08:26:00,
2014-01-25 03:41:00,18.3,1.0,29.81,South,179,17.0,21.0,46,0.00,,,0.00,weatherlink.com 1.10,2014-01-25 08:41:00,
2014-01-25 03:56:00,18.6,0.0,29.80,SSE,163,13.0,22.0,45,0.00,,,0.00,weatherlink.com 1.10,2014-01-25 08:56:00,
2014-01-25 04:11:00,18.6,1.0,29.79,South,181,10.0,18.0,46,0.00,,,0.00,weatherlink.com 1.10,2014-01-25 09:11:00,
2014-01-25 04:26:00,18.8,1.0,29.77,SSE,156,10.0,15.0,46,0.00,,,0.00,weatherlink.com 1.10,2014-01-25 09:26:00,
2014-01-25 04:42:00,18.8,2.0,29.77,South,177,6.0,11.0,47,0.00,,,0.00,weatherlink.com 1.10,2014-01-25 09:42:00,
2014-01-25 04:57:00,18.6,2.0,29.76,SE,135,5.0,10.0,48,0.00,,,0.00,weatherlink.com 1.10,2014-01-25 09:57:00,
2014-01-25 05:12:00,18.7,2.0,29.75,SSE,163,3.0,10.0,49,0.00,,,0.00,weatherlink.com 1.10,2014-01-25 10:12:00,
2014-01-25 05:27:00,19.2,2.0,29.75,South,172,12.0,18.0,47,0.00,,,0.00,weatherlink.com 1.10,2014-01-25 10:27:00,
2014-01-25 05:42:00,19.2,2.0,29.74,SSE,153,9.0,14.0,47,0.00,,,0.00,weatherlink.com 1.10,2014-01-25 10:42:00,
2014-01-25 05:57:00,19.2,2.0,29.73,SW,218,10.0,14.0,47,0.00,,,0.00,weatherlink.com 1.10,2014-01-25 10:57:00,
2014-01-25 06:12:00,19.2,2.0,29.72,SE,143,14.0,20.0,47,0.00,,,0.00,weatherlink.com 1.10,2014-01-25 11:12:00,
2014-01-25 06:27:00,19.4,3.0,29.71,SSE,168,3.0,19.0,48,0.00,,,0.00,weatherlink.com 1.10,2014-01-25 11:27:00,
2014-01-25 06:42:00,19.0,3.0,29.70,SE,145,12.0,15.0,50,0.00,,,0.00,weatherlink.com 1.10,2014-01-25 11:42:00,
2014-01-25 06:57:00,18.9,3.0,29.69,SE,134,12.0,16.0,49,0.00,,,0.00,weatherlink.com 1.10,2014-01-25 11:57:00,
2014-01-25 07:12:00,19.0,3.0,29.68,South,177,10.0,19.0,49,0.00,,,0.00,weatherlink.com 1.10,2014-01-25 12:12:00,
2014-01-25 07:27:00,19.0,3.0,29.68,SW,214,7.0,15.0,50,0.00,,,0.00,weatherlink.com 1.10,2014-01-25 12:27:00,
2014-01-25 07:42:00,19.0,4.0,29.67,SE,133,11.0,13.0,51,0.00,,,0.00,weatherlink.com 1.10,2014-01-25 12:42:00,
2014-01-25 07:57:00,19.1,3.0,29.66,SW,225,12.0,13.0,50,0.00,,,0.00,weatherlink.com 1.10,2014-01-25 12:57:00,
2014-01-25 08:13:00,19.3,3.0,29.66,SSW,202,7.0,11.0,50,0.00,,,0.00,weatherlink.com 1.10,2014-01-25 13:13:00,
2014-01-25 08:28:00,19.7,3.0,29.66,SSW,197,7.0,14.0,48,0.00,,,0.00,weatherlink.com 1.10,2014-01-25 13:28:00,
2014-01-25 08:43:00,19.8,3.0,29.65,SW,229,10.0,16.0,48,0.00,,,0.00,weatherlink.com 1.10,2014-01-25 13:43:00,
2014-01-25 08:58:00,20.1,3.0,29.64,SSE,153,6.0,17.0,48,0.00,,,0.00,weatherlink.com 1.10,2014-01-25 13:58:00,
2014-01-25 09:13:00,20.4,3.0,29.64,South,172,9.0,18.0,47,0.00,,,0.00,weatherlink.com 1.10,2014-01-25 14:13:00,
2014-01-25 09:28:00,20.6,3.0,29.64,SE,135,7.0,16.0,47,0.00,,,0.00,weatherlink.com 1.10,2014-01-25 14:28:00,
2014-01-25 09:43:00,21.0,4.0,29.63,SE,132,13.0,19.0,47,0.00,,,0.00,weatherlink.com 1.10,2014-01-25 14:43:00,
2014-01-25 09:58:00,21.3,3.0,29.62,SSW,197,7.0,17.0,46,0.00,,,0.00,weatherlink.com 1.10,2014-01-25 14:58:00,
2014-01-25 10:13:00,21.9,4.0,29.61,SE,133,7.0,16.0,46,0.00,,,0.00,weatherlink.com 1.10,2014-01-25 15:13:00,
2014-01-25 10:28:00,22.5,4.0,29.61,SE,146,10.0,16.0,45,0.00,,,0.00,weatherlink.com 1.10,2014-01-25 15:28:00,
2014-01-25 10:43:00,22.9,4.0,29.60,SE,138,5.0,18.0,45,0.00,,,0.00,weatherlink.com 1.10,2014-01-25 15:43:00,
2014-01-25 10:58:00,23.1,5.0,29.58,SE,143,14.0,18.0,45,0.00,,,0.00,weatherlink.com 1.10,2014-01-25 15:58:00,
2014-01-25 11:13:00,23.4,5.0,29.57,SE,130,4.0,20.0,45,0.00,,,0.00,weatherlink.com 1.10,2014-01-25 16:13:00,
2014-01-25 11:29:00,24.0,4.0,29.55,SSE,159,9.0,20.0,43,0.00,,,0.00,weatherlink.com 1.10,2014-01-25 16:29:00,
2014-01-25 11:44:00,24.3,5.0,29.54,SSE,152,8.0,19.0,44,0.00,,,0.00,weatherlink.com 1.10,2014-01-25 16:44:00,
2014-01-25 11:59:00,24.4,6.0,29.53,SSE,155,6.0,20.0,45,0.00,,,0.00,weatherlink.com 1.10,2014-01-25 16:59:00,
2014-01-25 12:14:00,24.8,6.0,29.52,SSE,163,9.0,17.0,45,0.00,,,0.00,weatherlink.com 1.10,2014-01-25 17:14:00,
2014-01-25 12:29:00,25.3,6.0,29.50,SE,136,11.0,15.0,44,0.00,,,0.00,weatherlink.com 1.10,2014-01-25 17:29:00,
2014-01-25 12:44:00,25.1,6.0,29.49,South,179,10.0,17.0,44,0.00,,,0.00,weatherlink.com 1.10,2014-01-25 17:44:00,
2014-01-25 12:59:00,25.9,8.0,29.48,SSE,167,7.0,12.0,46,0.00,,,0.00,weatherlink.com 1.10,2014-01-25 17:59:00,
2014-01-25 13:14:00,27.1,8.0,29.47,South,188,6.0,11.0,45,0.00,,,0.00,weatherlink.com 1.10,2014-01-25 18:14:00,
2014-01-25 13:29:00,26.8,8.0,29.45,SSE,158,5.0,12.0,45,0.00,,,0.00,weatherlink.com 1.10,2014-01-25 18:29:00,
2014-01-25 13:44:00,27.5,8.0,29.45,South,174,7.0,19.0,44,0.00,,,0.00,weatherlink.com 1.10,2014-01-25 18:44:00,
2014-01-25 13:59:00,28.3,9.0,29.43,SSE,159,10.0,13.0,44,0.00,,,0.00,weatherlink.com 1.10,2014-01-25 18:59:00,
2014-01-25 14:14:00,27.9,9.0,29.43,South,176,8.0,13.0,45,0.00,,,0.00,weatherlink.com 1.10,2014-01-25 19:14:00,
2014-01-25 14:29:00,28.1,9.0,29.42,SE,134,7.0,14.0,44,0.00,,,0.00,weatherlink.com 1.10,2014-01-25 19:29:00,
2014-01-25 14:45:00,28.4,10.0,29.42,SSE,165,8.0,14.0,46,0.00,,,0.00,weatherlink.com 1.10,2014-01-25 19:45:00,
2014-01-25 15:00:00,28.3,10.0,29.41,SE,145,9.0,14.0,46,0.00,,,0.00,weatherlink.com 1.10,2014-01-25 20:00:00,
2014-01-25 15:15:00,28.0,10.0,29.42,SE,143,10.0,15.0,48,0.00,,,0.00,weatherlink.com 1.10,2014-01-25 20:15:00,
2014-01-25 15:30:00,27.8,11.0,29.42,SE,139,4.0,12.0,49,0.00,,,0.00,weatherlink.com 1.10,2014-01-25 20:30:00,
2014-01-25 15:45:00,27.8,12.0,29.42,SE,143,3.0,11.0,51,0.00,,,0.00,weatherlink.com 1.10,2014-01-25 20:45:00,
2014-01-25 16:00:00,28.1,12.0,29.43,SSW,205,9.0,17.0,50,0.00,,,0.00,weatherlink.com 1.10,2014-01-25 21:00:00,
2014-01-25 16:15:00,28.0,12.0,29.43,SE,145,2.0,9.0,52,0.00,,,0.00,weatherlink.com 1.10,2014-01-25 21:15:00,
2014-01-25 16:30:00,28.1,12.0,29.43,SSE,149,8.0,13.0,52,0.00,,,0.00,weatherlink.com 1.10,2014-01-25 21:30:00,
2014-01-25 16:45:00,28.2,12.0,29.43,SE,133,7.0,14.0,52,0.00,,,0.00,weatherlink.com 1.10,2014-01-25 21:45:00,
2014-01-25 17:00:00,28.4,14.0,29.43,SSW,203,7.0,13.0,54,0.00,,,0.00,weatherlink.com 1.10,2014-01-25 22:00:00,
2014-01-25 17:15:00,28.2,13.0,29.43,SSW,207,4.0,10.0,54,0.00,,,0.00,weatherlink.com 1.10,2014-01-25 22:15:00,
2014-01-25 17:30:00,28.2,14.0,29.44,SW,217,0.0,4.0,55,0.00,,,0.00,weatherlink.com 1.10,2014-01-25 22:30:00,
2014-01-25 17:45:00,28.9,15.0,29.45,WSW,249,2.0,8.0,56,0.00,,,0.00,weatherlink.com 1.10,2014-01-25 22:45:00,
2014-01-25 18:00:00,31.3,17.0,29.45,WSW,252,8.0,18.0,56,0.00,,,0.00,weatherlink.com 1.10,2014-01-25 23:00:00,
2014-01-25 18:16:00,31.8,17.0,29.45,West,264,5.0,20.0,55,0.00,,,0.00,weatherlink.com 1.10,2014-01-25 23:16:00,
2014-01-25 18:31:00,31.9,17.0,29.46,WSW,252,6.0,11.0,55,0.00,,,0.00,weatherlink.com 1.10,2014-01-25 23:31:00,
2014-01-25 18:46:00,32.0,17.0,29.46,WSW,257,8.0,16.0,55,0.00,,,0.00,weatherlink.com 1.10,2014-01-25 23:46:00,
2014-01-25 19:01:00,32.1,17.0,29.46,WSW,246,7.0,15.0,54,0.00,,,0.00,weatherlink.com 1.10,2014-01-26 00:01:00,
2014-01-25 19:16:00,31.9,17.0,29.46,West,262,8.0,13.0,54,0.00,,,0.00,weatherlink.com 1.10,2014-01-26 00:16:00,
2014-01-25 19:31:00,31.7,17.0,29.47,ESE,120,5.0,18.0,54,0.00,,,0.00,weatherlink.com 1.10,2014-01-26 00:31:00,
2014-01-25 19:46:00,31.4,17.0,29.47,SW,218,11.0,20.0,55,0.00,,,0.00,weatherlink.com 1.10,2014-01-26 00:46:00,
2014-01-25 20:01:00,31.0,16.0,29.47,West,278,8.0,14.0,55,0.00,,,0.00,weatherlink.com 1.10,2014-01-26 01:01:00,
2014-01-25 20:16:00,30.8,16.0,29.48,NNW,330,8.0,13.0,55,0.00,,,0.00,weatherlink.com 1.10,2014-01-26 01:16:00,
2014-01-25 20:31:00,30.5,16.0,29.49,SW,232,7.0,13.0,56,0.00,,,0.00,weatherlink.com 1.10,2014-01-26 01:31:00,
2014-01-25 20:46:00,30.6,16.0,29.49,SSW,207,6.0,17.0,56,0.00,,,0.00,weatherlink.com 1.10,2014-01-26 01:46:00,
2014-01-25 21:01:00,29.5,22.0,29.52,WSW,245,21.0,28.0,72,0.00,,,0.00,weatherlink.com 1.10,2014-01-26 02:01:00,
2014-01-25 21:16:00,26.7,22.0,29.52,WNW,284,11.0,25.0,82,0.00,,,0.00,weatherlink.com 1.10,2014-01-26 02:16:00,
2014-01-25 21:32:00,27.5,20.0,29.53,WSW,248,17.0,18.0,73,0.00,,,0.00,weatherlink.com 1.10,2014-01-26 02:32:00,
2014-01-25 21:47:00,27.8,15.0,29.54,West,271,10.0,20.0,60,0.00,,,0.00,weatherlink.com 1.10,2014-01-26 02:47:00,
2014-01-25 22:02:00,27.9,12.0,29.56,WNW,290,23.0,37.0,51,0.00,,,0.00,weatherlink.com 1.10,2014-01-26 03:02:00,
2014-01-25 22:17:00,27.3,13.0,29.57,SW,225,10.0,16.0,54,0.00,,,0.00,weatherlink.com 1.10,2014-01-26 03:17:00,
2014-01-25 22:32:00,26.6,14.0,29.61,West,269,31.0,31.0,60,0.00,,,0.00,weatherlink.com 1.10,2014-01-26 03:32:00,
2014-01-25 22:47:00,24.4,13.0,29.61,West,260,10.0,21.0,63,0.00,,,0.00,weatherlink.com 1.10,2014-01-26 03:47:00,
2014-01-25 23:02:00,24.3,13.0,29.62,WNW,299,8.0,21.0,62,0.00,,,0.00,weatherlink.com 1.10,2014-01-26 04:02:00,
2014-01-25 23:17:00,23.7,10.0,29.64,West,270,8.0,26.0,57,0.00,,,0.00,weatherlink.com 1.10,2014-01-26 04:17:00,
2014-01-25 23:32:00,23.1,9.0,29.65,NW,309,9.0,19.0,54,0.00,,,0.00,weatherlink.com 1.10,2014-01-26 04:32:00,
2014-01-25 23:47:00,22.4,8.0,29.66,WSW,242,5.0,20.0,54,0.00,,,0.00,weatherlink.com 1.10,2014-01-26 04:47:00,